Temp
59 51 48 54 57 59 57 51 50 54 57 53 52 54 58 63 62 61 61 62 64 66 70 70 69 67 66 66 66 67 65 64 60 56 54 52 51 50 51 52 53 55 56 54
51 47 57 62 58 54 54 50 49 56 57 51 51 51 58 61 61 63 66 63 64 65 67 68 64 63 64 64 64 64 65 64 59 58 56 55 52 50 50 49 50 51 51 51
50 53 61 58 53 51 49 48 47 49 53 52 47 45 50 58 61 65 66 68 67 66 65 63 61 60 60 60 61 62 63 62 60 57 53 49 49 47 46 46 46 47 49 48
53 59 55 52 52 53 45 53 54 51 44 37 47 35 49 57 58 59 61 61 62 64 65 62 61 59 58 58 59 61 61 60 59 59 51 51 50 48 48 46 46 46 47 47
49 50 50 49 51 55 49 52 49 48 43 41 41 37 45 56 54 58 62 63 61 59 62 60 60 59 59 59 57 58 59 58 57 56 54 51 51 54 50 47 45 44 44 44
50 52 51 52 52 54 53 49 48 44 43 33 44 42 43 51 56 59 61 60 58 57 56 55 55 57 55 55 55 55 56 56 54 54 53 50 49 49 44 41 43 42 41 41
47 48 50 51 46 49 49 44 32 30 29 31 47 42 49 55 59 58 58 56 56 56 54 51 50 50 51 51 51 52 53 53 52 51 50 50 50 47 44 42 41 38 37 39
42 39 46 50 49 44 43 45 33 25 27 32 36 34 45 57 58 58 62 58 56 54 54 52 51 50 50 51 50 50 51 51 50 49 48 48 49 46 45 43 42 41 42 41
43 44 52 51 54 53 44 40 50 38 29 28 37 45 54 56 58 58 57 57 54 54 53 52 50 50 49 49 49 49 50 51 50 48 47 46 46 44 43 43 44 43 43 41
47 40 47 47 50 51 48 51 38 37 25 23 35 36 43 50 53 57 55 55 54 54 51 49 48 48 49 49 49 49 50 49 49 49 48 48 46 45 46 45 43 43 40 38
51 45 38 44 42 43 43 40 45 45 39 28 28 36 49 50 51 52 54 55 54 50 49 48 47 48 48 47 47 47 48 48 48 48 47 45 43 43 42 42 41 39 37 36
45 42 36 38 43 46 47 47 48 37 32 35 32 40 50 50 51 51 51 52 51 50 50 48 47 46 46 45 46 46 46 46 47 47 46 44 43 42 39 38 37 36 35 35
42 34 32 33 38 40 39 45 49 49 39 31 30 38 49 51 50 50 48 49 49 48 47 47 46 45 45 45 45 46 46 46 47 47 45 43 41 40 38 36 34 34 34 34
43 33 32 31 33 38 34 39 43 42 35 37 36 42 46 49 50 48 47 49 49 49 49 48 47 46 46 46 46 46 46 47 46 45 43 41 40 39 37 34 32 32 31 31
40 32 33 35 34 33 33 32 34 34 36 33 37 39 45 49 51 52 53 52 52 50 51 51 49 47 46 46 45 46 46 45 45 44 42 40 38 37 34 32 31 31 30 31
40 32 33 31 36 33 32 35 37 38 38 37 38 37 49 52 55 53 55 57 51 52 53 51 50 50 49 48 46 46 45 44 43 42 39 37 36 35 34 33 31 30 29 29
34 33 31 28 33 33 28 34 37 39 43 43 36 43 50 48 51 51 51 52 54 55 55 54 52 50 48 47 47 45 44 43 41 38 37 36 35 34 32 31 30 29 28 28
33 32 30 26 28 19 33 43 44 42 44 45 44 38 40 41 43 49 48 46 49 51 50 49 47 46 46 46 46 45 42 40 37 36 35 35 34 32 30 29 28 26 26 26
37 31 26 22 21 29 34 38 38 38 34 39 38 38 40 42 41 45 46 45 45 46 45 43 43 43 42 42 42 40 38 37 35 34 33 33 32 30 28 26 25 25 25 25
33 32 27 23 19 17 30 34 39 40 28 33 38 39 37 38 30 38 43 43 43 42 42 41 40 40 38 38 37 37 36 35 33 33 33 31 31 29 27 26 25 25 26 28
27 28 27 26 20 26 33 35 37 28 29 36 36 36 33 33 38 42 42 42 41 41 40 39 36 36 36 35 35 34 34 33 34 34 30 29 30 29 28 26 27 28 27 27
27 26 26 27 24 19 35 34 32 34 35 37 37 38 36 38 40 40 40 40 41 39 39 37 34 34 34 34 32 32 32 34 34 29 29 28 28 29 28 27 28 27 26 25
21 29 26 29 28 33 34 33 37 39 36 35 34 38 38 36 37 39 39 39 38 37 35 35 34 33 33 33 30 29 33 32 29 26 23 23 24 27 29 27 26 26 25 25
27 31 25 28 31 33 35 37 39 38 37 37 37 37 37 37 37 36 37 36 35 36 35 32 29 30 30 28 29 29 29 29 29 28 28 28 28 27 28 29 29 28 27 26
29 30 24 25 32 33 34 37 38 37 36 36 36 35 35 34 34 33 33 34 35 34 31 28 28 28 28 27 26 26 27 26 25 26 27 27 28 28 27 28 28 28 29 29
31 29 26 23 33 33 34 37 37 36 35 36 34 34 35 33 33 32 32 32 32 30 26 25 24 23 25 24 24 22 25 26 24 23 25 27 27 26 26 27 26 33 33 34
MSLP
1013.57 1013.71 1013.31 1013.43 1013.27 1012.93 1012.78 1012.98 1013.18 1012.70 1013.32 1013.85 1013.99 1013.54 1012.93 1012.33 1012.03 1011.71 1011.54 1011.17 1010.92 1010.81 1010.55 1010.60 1010.98 1011.71 1012.74 1013.43 1013.91 1014.33 1015.29 1016.17 1017.17 1018.44 1019.52 1020.54 1020.96 1021.37 1021.58 1021.86 1022.08 1022.28 1022.68 1023.35
1013.93 1013.35 1013.08 1012.98 1012.95 1013.15 1013.21 1013.32 1013.51 1013.36 1013.69 1014.18 1014.15 1013.58 1012.66 1011.98 1011.25 1010.88 1010.57 1010.62 1010.25 1010.30 1010.10 1010.19 1010.65 1011.40 1012.15 1013.10 1013.85 1014.49 1015.17 1016.06 1017.07 1018.16 1019.08 1019.77 1020.53 1021.35 1021.60 1022.05 1022.46 1022.65 1023.02 1023.43
1013.16 1012.85 1012.68 1012.99 1013.20 1013.60 1013.68 1013.76 1014.03 1014.23 1014.20 1014.25 1014.22 1013.26 1012.37 1010.33 1010.13 1009.97 1009.81 1009.66 1009.72 1009.80 1010.04 1010.20 1010.73 1011.39 1012.04 1012.76 1013.50 1014.33 1015.02 1015.99 1017.12 1018.04 1018.97 1019.82 1020.55 1021.31 1021.87 1022.19 1022.54 1022.76 1023.07 1023.57
1013.14 1012.82 1013.08 1013.26 1013.42 1013.94 1014.29 1014.01 1014.30 1014.81 1015.41 1015.11 1014.51 1013.09 1011.72 1010.57 1009.80 1009.53 1009.16 1009.04 1009.15 1009.36 1009.52 1010.26 1011.02 1011.67 1012.35 1012.89 1013.50 1013.98 1014.85 1015.52 1016.46 1017.58 1018.52 1019.06 1019.57 1020.26 1020.72 1021.33 1022.12 1022.63 1023.01 1023.47
1013.01 1013.14 1013.15 1013.54 1013.59 1014.06 1014.44 1014.56 1014.73 1015.21 1015.78 1015.73 1014.62 1014.14 1010.60 1009.74 1009.46 1008.87 1008.31 1008.51 1008.75 1009.08 1009.67 1010.58 1011.30 1011.84 1012.27 1012.82 1013.46 1014.00 1014.55 1015.41 1016.02 1016.93 1017.85 1018.60 1019.22 1019.43 1020.22 1021.11 1021.90 1022.57 1022.94 1023.38
1013.24 1013.66 1013.60 1013.64 1014.08 1014.23 1014.69 1015.32 1015.86 1016.21 1016.50 1015.84 1014.39 1013.68 1009.79 1009.09 1008.21 1007.75 1007.50 1008.21 1008.93 1009.61 1010.38 1011.31 1011.81 1012.31 1012.74 1013.12 1013.62 1014.23 1014.77 1015.37 1015.97 1016.64 1017.41 1018.15 1018.90 1019.38 1020.19 1020.99 1021.61 1022.23 1022.79 1023.24
1013.45 1013.54 1013.73 1013.99 1014.61 1014.98 1015.04 1015.86 1016.63 1017.20 1017.08 1014.90 1013.43 1012.82 1009.28 1008.31 1007.39 1007.39 1007.92 1008.79 1009.40 1010.17 1011.08 1011.94 1012.59 1013.11 1013.48 1014.00 1014.21 1014.53 1014.99 1015.60 1016.18 1016.81 1017.46 1017.96 1018.44 1018.97 1019.70 1020.49 1021.23 1022.03 1022.57 1023.04
1012.65 1013.16 1013.08 1013.57 1013.33 1013.98 1014.82 1014.98 1015.40 1015.81 1016.54 1015.17 1013.95 1011.70 1008.99 1007.62 1007.20 1007.18 1007.42 1008.30 1009.52 1010.57 1011.31 1012.27 1012.85 1013.44 1013.85 1014.29 1014.66 1015.06 1015.31 1015.50 1016.26 1016.94 1017.61 1018.07 1018.38 1018.82 1019.32 1020.10 1020.81 1021.40 1021.73 1021.95
1011.81 1011.71 1011.46 1012.03 1012.42 1012.81 1014.48 1014.64 1014.11 1015.30 1015.83 1015.80 1013.34 1010.85 1008.66 1007.83 1007.73 1007.74 1008.15 1009.02 1009.78 1010.63 1011.41 1012.36 1012.91 1013.40 1014.02 1014.46 1014.87 1015.26 1015.65 1015.78 1016.20 1016.98 1017.65 1018.13 1018.59 1019.12 1019.50 1019.96 1020.44 1021.01 1021.49 1021.88
1011.54 1011.89 1011.75 1012.48 1012.85 1012.69 1012.88 1013.35 1014.30 1014.98 1015.88 1015.44 1012.72 1011.26 1009.20 1008.37 1008.17 1007.83 1008.36 1008.84 1009.83 1010.66 1011.45 1012.29 1012.97 1013.38 1013.87 1014.35 1014.98 1015.42 1015.49 1015.73 1016.01 1016.63 1017.32 1017.87 1018.36 1018.93 1019.45 1019.99 1020.45 1020.90 1021.46 1022.00
1012.28 1012.79 1013.48 1013.27 1013.05 1012.65 1013.03 1013.11 1013.24 1013.85 1014.26 1014.18 1013.10 1010.85 1008.74 1009.14 1008.89 1008.78 1008.87 1009.26 1009.74 1010.71 1011.61 1012.61 1013.32 1013.50 1014.21 1014.56 1015.02 1015.32 1015.46 1015.42 1015.80 1016.22 1016.88 1017.51 1018.06 1018.59 1019.15 1019.67 1020.12 1020.60 1021.25 1021.90
1013.73 1013.51 1013.82 1013.80 1013.45 1013.18 1012.75 1012.35 1012.82 1012.99 1013.59 1013.84 1013.28 1009.56 1009.48 1009.47 1009.64 1009.68 1010.06 1010.34 1010.83 1011.35 1011.98 1012.84 1013.33 1013.82 1014.35 1014.83 1015.05 1015.36 1015.54 1015.54 1015.87 1015.98 1016.39 1017.24 1017.96 1018.52 1019.05 1019.51 1019.94 1020.55 1021.23 1021.89
1015.14 1015.11 1015.20 1015.03 1014.70 1014.21 1013.69 1013.06 1012.83 1013.04 1013.71 1013.69 1013.83 1009.98 1010.13 1009.42 1010.20 1010.29 1010.73 1011.07 1011.47 1011.83 1012.51 1013.11 1013.55 1013.92 1014.28 1014.51 1014.77 1014.96 1015.14 1015.39 1015.70 1016.13 1016.51 1016.68 1017.21 1018.02 1018.88 1019.55 1020.10 1020.64 1021.06 1021.53
1015.91 1016.10 1015.98 1015.70 1015.59 1015.34 1014.97 1014.27 1014.00 1014.05 1014.50 1013.90 1012.75 1011.16 1010.78 1010.07 1010.51 1010.46 1010.67 1010.95 1011.36 1011.89 1012.62 1013.30 1013.83 1013.87 1013.90 1014.13 1014.40 1014.50 1014.55 1014.70 1014.94 1015.50 1016.24 1016.59 1017.02 1017.46 1018.14 1019.04 1019.85 1020.60 1021.10 1021.58
1016.45 1016.59 1016.61 1016.50 1016.64 1016.46 1016.15 1015.91 1015.69 1015.24 1015.16 1014.91 1013.60 1012.37 1012.26 1011.62 1011.15 1010.93 1010.96 1010.97 1011.12 1011.69 1012.41 1012.80 1013.28 1013.47 1013.42 1013.70 1014.04 1014.38 1014.55 1014.70 1014.74 1015.26 1015.88 1016.34 1016.93 1017.62 1018.14 1018.80 1019.39 1020.19 1020.94 1021.58
1016.68 1016.94 1017.01 1016.85 1016.67 1016.63 1016.28 1015.61 1015.21 1015.09 1014.86 1014.82 1014.49 1012.76 1012.61 1011.61 1011.45 1011.06 1010.75 1010.66 1011.03 1011.05 1011.36 1011.61 1012.04 1012.44 1012.84 1013.01 1013.21 1013.69 1013.86 1014.11 1014.74 1015.19 1015.59 1016.12 1016.82 1017.67 1018.50 1018.82 1019.09 1019.71 1020.41 1021.03
1016.81 1017.24 1017.44 1017.17 1016.62 1016.63 1016.00 1013.93 1013.66 1013.81 1013.52 1013.09 1013.58 1012.51 1012.30 1012.15 1011.83 1011.58 1011.39 1011.30 1011.06 1011.02 1011.15 1011.26 1011.85 1012.20 1012.23 1012.39 1012.55 1013.16 1013.17 1013.55 1013.99 1014.41 1015.01 1015.54 1016.20 1017.26 1018.27 1019.11 1019.69 1020.03 1020.41 1020.94
1017.01 1017.28 1017.47 1017.60 1017.32 1016.33 1013.51 1012.56 1012.42 1012.84 1013.03 1013.37 1013.10 1013.65 1013.86 1013.71 1012.99 1012.66 1012.69 1012.62 1012.54 1012.10 1012.05 1012.33 1012.55 1012.69 1012.69 1012.67 1012.60 1012.60 1012.99 1013.37 1013.92 1014.31 1014.74 1015.32 1015.96 1016.65 1017.75 1018.72 1019.46 1019.93 1020.39 1020.73
1016.84 1017.36 1017.75 1017.62 1017.25 1015.38 1013.35 1012.36 1012.28 1012.62 1014.08 1014.28 1014.38 1014.55 1014.30 1013.79 1013.16 1013.11 1013.27 1013.46 1013.64 1013.68 1013.55 1013.41 1013.32 1013.42 1013.32 1013.17 1012.94 1012.77 1013.15 1013.61 1014.02 1014.43 1014.95 1015.34 1015.84 1016.60 1017.34 1018.32 1019.21 1019.71 1020.29 1020.78
1017.33 1017.29 1017.88 1017.75 1017.21 1015.75 1013.59 1012.75 1011.99 1012.46 1014.21 1014.83 1014.82 1014.82 1014.83 1014.55 1014.60 1014.38 1013.94 1013.77 1013.54 1013.49 1013.53 1013.65 1013.84 1013.73 1013.61 1013.35 1013.12 1013.20 1013.32 1013.69 1014.29 1014.71 1015.03 1015.46 1015.75 1016.02 1016.76 1017.70 1018.73 1019.42 1020.04 1020.37
1017.45 1017.49 1017.10 1017.53 1017.08 1015.21 1013.54 1013.12 1012.82 1013.86 1014.93 1014.82 1014.86 1014.97 1015.21 1015.36 1015.03 1014.35 1014.22 1014.12 1013.96 1013.88 1013.74 1013.68 1013.98 1014.27 1014.22 1014.07 1013.82 1013.62 1013.62 1013.78 1013.84 1014.39 1015.03 1015.51 1015.94 1016.26 1016.61 1017.26 1017.95 1018.69 1019.31 1019.81
1016.22 1016.65 1016.67 1017.16 1017.04 1015.39 1013.63 1013.76 1013.92 1014.36 1014.62 1014.63 1014.72 1014.84 1015.09 1015.16 1015.04 1014.60 1014.33 1014.32 1014.13 1014.06 1013.88 1013.85 1013.94 1014.11 1014.09 1014.17 1014.30 1014.18 1014.26 1013.95 1014.19 1014.65 1015.21 1015.43 1015.77 1016.22 1016.69 1017.13 1017.93 1018.53 1019.04 1019.54
1015.59 1014.83 1015.19 1015.08 1014.47 1013.89 1013.66 1013.66 1013.82 1014.08 1014.50 1014.65 1014.84 1014.96 1015.07 1015.29 1015.19 1014.69 1014.27 1014.11 1014.14 1014.18 1014.25 1014.41 1014.52 1014.41 1014.12 1014.13 1014.40 1014.62 1014.23 1013.97 1014.02 1014.70 1015.63 1016.22 1016.44 1016.66 1016.91 1017.14 1017.78 1018.49 1018.72 1019.43
1014.84 1014.30 1014.46 1014.58 1013.78 1013.89 1013.87 1013.85 1013.77 1013.90 1014.30 1014.48 1014.78 1014.86 1014.97 1015.03 1014.75 1014.78 1014.60 1014.28 1014.37 1014.35 1014.23 1014.25 1014.32 1014.46 1014.53 1014.21 1014.27 1014.39 1014.43 1014.61 1014.80 1014.49 1015.11 1016.12 1016.65 1017.26 1017.19 1017.26 1017.60 1018.04 1018.32 1018.76
1014.36 1014.26 1014.42 1014.33 1013.89 1013.74 1013.50 1013.61 1013.82 1013.97 1014.13 1014.38 1014.61 1014.76 1014.79 1014.79 1014.50 1014.58 1014.61 1014.65 1014.60 1014.46 1014.42 1014.56 1014.49 1014.67 1014.56 1014.09 1014.13 1014.65 1014.84 1015.05 1014.99 1014.97 1014.65 1015.10 1016.07 1016.40 1016.84 1016.88 1017.15 1017.46 1017.90 1018.08
1013.70 1013.68 1014.23 1014.28 1013.97 1014.24 1014.06 1013.82 1013.79 1014.13 1014.20 1014.15 1014.54 1014.50 1014.63 1014.76 1014.68 1014.77 1014.67 1014.72 1014.80 1014.86 1014.94 1015.11 1015.20 1015.29 1014.85 1014.40 1014.34 1014.53 1014.70 1014.56 1015.15 1015.21 1015.33 1015.12 1015.59 1016.48 1016.67 1017.14 1017.16 1017.13 1017.77 1017.78
Wind_Speed
7 4 7 10 11 10 8 4 8 2 6 5 8 11 11 10 9 10 11 10 11 10 9 11 13 11 8 9 10 12 13 11 9 5 4 3 3 2 2 3 4 6 8 10
3 8 9 9 2 2 8 5 7 8 6 3 6 13 15 13 12 12 16 11 11 8 9 9 10 10 11 9 8 8 11 12 10 8 4 3 4 2 3 3 3 4 5 8
10 3 13 9 3 1 5 6 5 7 4 6 5 9 13 12 11 15 14 15 11 11 8 4 9 10 9 9 9 8 8 10 11 10 7 4 5 4 3 2 3 4 5 5
9 10 3 4 8 7 6 4 9 6 2 4 4 8 5 11 9 9 11 10 10 10 8 8 9 8 8 8 6 8 8 9 9 13 8 7 5 4 4 4 4 5 7 7
4 6 8 9 5 7 4 3 2 3 3 6 4 6 8 12 8 10 12 10 8 4 8 6 8 7 5 8 8 8 8 8 8 8 11 8 5 4 5 6 8 6 5 6
2 1 2 3 4 6 9 6 4 2 2 7 7 8 5 8 8 7 8 4 8 8 8 8 7 6 4 5 6 6 7 6 8 7 7 8 8 6 7 5 7 6 5 5
5 9 4 2 6 6 5 6 2 2 3 11 8 8 9 3 6 2 3 6 7 8 7 6 6 3 3 5 5 6 7 6 7 7 5 6 7 8 9 9 7 8 5 4
12 8 13 9 10 10 11 9 7 8 6 6 2 9 6 4 2 2 7 10 8 8 7 6 7 6 6 7 6 5 6 7 8 7 6 5 5 4 5 7 6 6 6 6
7 10 6 8 6 13 7 10 6 5 2 3 6 8 10 6 9 8 5 8 9 8 8 8 7 6 7 7 7 7 7 5 8 8 6 5 4 4 5 6 6 5 5 6
3 6 1 3 2 7 6 4 4 3 4 5 8 7 10 5 9 12 8 10 8 7 8 7 7 7 6 5 5 5 7 7 6 8 7 6 7 7 6 5 6 7 7 8
9 3 3 4 8 11 5 5 5 6 5 6 6 7 1 5 6 6 6 2 7 8 7 5 5 5 5 5 6 6 6 7 7 7 6 7 6 7 6 6 6 7 8 8
8 0 10 4 3 4 4 11 13 6 4 5 3 15 3 7 8 8 8 8 7 5 6 6 6 7 6 7 6 6 6 6 6 7 7 7 6 6 7 6 7 8 8 7
2 2 4 5 3 4 3 4 10 12 2 6 6 10 4 10 8 6 6 6 4 4 5 3 5 6 6 6 6 7 7 7 7 6 7 8 8 8 8 7 7 7 9 9
3 4 2 2 1 3 1 4 5 2 6 15 18 12 4 10 8 3 2 4 6 6 5 4 5 7 6 6 7 7 8 8 8 7 7 8 9 10 9 8 8 7 7 9
6 4 4 4 4 2 2 3 4 2 3 6 6 18 7 11 9 4 6 4 6 6 7 8 8 8 7 7 7 7 7 7 7 9 8 7 7 7 7 9 9 8 7 7
5 3 5 4 8 8 6 12 10 10 10 10 14 26 18 19 12 10 10 10 8 8 10 9 9 8 8 9 9 8 8 8 7 8 8 7 7 7 7 9 10 9 8 8
5 4 4 1 1 8 8 15 15 10 11 12 10 15 11 7 7 8 8 7 7 6 5 6 7 8 8 8 8 9 8 7 9 8 8 8 9 9 8 8 8 8 9 8
4 3 1 2 1 5 5 3 9 17 10 5 7 10 7 6 7 7 14 13 14 13 10 8 6 6 6 6 5 6 6 7 8 7 7 8 10 10 9 8 8 7 8 9
5 3 1 3 4 7 11 5 7 9 3 2 5 6 6 9 6 2 10 7 6 7 6 6 5 5 6 5 6 4 4 5 6 7 7 7 9 9 10 10 9 6 7 6
3 2 4 3 4 6 5 3 2 5 3 5 3 2 2 6 4 4 7 7 8 6 4 6 7 6 7 7 5 3 4 4 6 5 6 6 8 11 11 10 9 6 6 8
5 4 13 9 4 8 5 4 2 5 5 5 3 2 3 3 6 7 6 7 5 6 8 4 5 6 7 7 6 4 3 5 5 6 5 6 6 8 9 9 7 10 9 8
9 9 7 7 7 12 6 4 6 3 3 2 3 3 4 7 8 8 8 7 7 8 7 5 4 5 5 5 4 4 5 3 3 3 5 6 7 6 7 10 8 8 8 8
2 7 7 9 8 2 4 5 2 4 4 4 2 6 5 7 8 9 10 7 7 7 6 4 4 5 4 0 1 4 4 3 6 6 4 3 3 3 6 8 8 7 7 6
4 3 3 5 3 6 4 3 5 4 5 3 4 8 8 12 8 8 8 8 6 6 7 2 2 4 5 1 1 3 2 2 4 8 9 5 5 2 4 5 6 6 7 7
6 7 5 4 4 4 2 3 4 4 4 5 6 6 9 7 12 6 6 7 7 6 4 3 4 5 6 3 4 3 2 2 3 3 7 8 6 8 6 5 7 6 6 8
6 5 4 5 1 2 6 6 5 7 7 7 7 6 6 6 9 5 7 6 6 7 4 4 4 4 6 3 2 2 2 5 3 3 3 5 5 3 4 5 3 10 8 14
Wind_Direction
208 199 200 223 215 238 284 344 310 14 148 180 227 259 259 267 269 263 251 243 244 236 235 196 184 182 184 183 176 172 162 166 142 134 133 134 173 150 107 122 133 144 151 146
119 229 235 234 289 284 282 242 274 298 113 163 266 266 272 258 243 234 246 250 251 250 232 214 174 164 172 182 178 175 174 170 161 163 149 142 135 139 109 122 122 110 122 145
211 159 212 237 199 200 254 242 251 257 314 207 262 271 241 268 235 245 258 252 247 245 239 199 150 166 169 177 182 179 174 170 161 156 119 89 84 80 104 144 136 150 142 150
232 242 147 218 230 176 248 246 231 243 344 258 132 284 286 295 254 226 238 236 238 232 219 156 159 169 175 186 177 169 172 165 157 159 147 160 167 155 173 149 143 145 149 161
211 196 172 207 198 173 204 24 85 168 233 304 209 265 243 219 263 248 244 230 228 152 100 134 141 177 171 160 170 168 164 167 156 165 160 168 181 165 150 142 147 151 147 148
203 318 248 186 64 172 131 92 71 56 197 263 160 203 221 225 229 233 223 156 131 112 98 81 55 84 117 119 131 144 157 163 151 159 159 161 177 162 144 141 161 164 156 148
180 198 175 155 88 23 157 142 184 274 185 240 161 216 237 182 294 333 330 150 134 127 128 136 136 139 146 134 132 140 158 180 152 153 165 189 190 162 157 161 168 160 156 173
199 220 160 187 192 168 195 179 173 198 190 259 36 239 250 212 322 262 277 160 143 138 137 156 165 168 162 162 161 173 194 180 150 154 192 195 206 159 155 163 161 177 183 167
197 230 129 171 167 151 185 219 223 330 83 22 223 266 284 212 240 250 244 146 174 168 157 163 153 161 165 167 180 190 199 188 157 164 184 184 173 146 156 165 158 158 144 141
281 278 67 80 95 274 169 172 126 224 194 222 257 253 236 311 260 233 214 212 183 175 147 152 163 167 160 160 175 203 183 186 165 166 178 178 170 169 161 152 151 143 133 138
216 233 27 106 210 180 166 208 211 175 194 176 263 253 87 103 37 21 312 276 182 155 157 157 170 142 154 157 185 198 198 182 179 172 171 162 164 162 157 157 151 141 133 142
14 203 220 189 45 14 271 205 204 181 218 217 166 246 40 77 53 24 46 48 49 104 129 148 147 154 172 184 191 204 208 190 196 178 166 168 166 163 157 161 150 144 147 154
108 217 205 290 319 343 237 204 229 242 74 214 165 258 310 91 70 72 47 48 53 77 95 134 163 186 197 198 196 199 202 198 194 193 184 174 166 161 164 162 150 151 152 155
108 170 242 296 25 335 147 346 347 319 233 238 241 268 237 333 11 76 103 160 165 179 200 231 237 224 215 210 211 213 210 196 183 181 187 182 174 169 163 154 151 154 159 158
151 187 189 200 176 129 149 209 271 270 230 242 318 272 308 321 318 329 295 182 169 184 205 219 233 232 219 219 218 223 222 206 184 187 189 189 166 161 154 155 154 151 155 161
177 198 174 248 196 188 215 227 241 216 220 241 253 267 270 272 277 272 276 291 235 207 213 221 220 223 219 216 215 205 215 203 184 194 194 167 160 163 171 161 158 154 151 153
147 166 173 262 314 185 254 229 197 204 202 197 215 243 272 284 281 293 287 291 292 308 278 271 260 237 227 228 218 213 211 183 194 187 183 173 159 160 159 156 152 159 161 153
140 131 124 192 47 239 218 31 201 208 226 262 281 42 35 347 309 354 32 21 358 347 358 13 17 353 352 344 290 241 208 200 192 193 181 169 164 159 151 151 162 159 162 168
164 153 184 190 194 292 310 213 171 170 190 6 76 28 358 331 331 127 21 5 343 343 344 342 346 334 325 317 311 260 230 212 185 194 182 170 162 154 153 163 166 162 153 165
160 130 152 161 188 232 239 306 4 90 252 216 107 102 358 356 44 288 345 339 325 322 332 335 333 326 324 330 338 300 244 202 216 203 188 168 162 160 165 162 162 161 167 173
152 191 214 220 252 283 210 189 271 140 223 206 203 225 209 177 203 253 305 299 304 304 311 309 330 315 310 320 322 287 245 234 209 184 160 158 166 166 162 154 158 163 166 157
164 168 190 187 204 257 166 85 170 169 172 222 284 269 264 262 268 267 273 268 287 293 290 302 318 323 331 338 326 283 263 245 189 131 147 151 152 157 154 153 155 159 160 161
213 184 176 182 209 164 122 141 103 156 196 225 227 287 281 267 254 271 279 271 268 288 291 289 311 312 312 287 243 283 279 169 136 113 98 98 104 132 155 153 156 157 156 167
264 149 176 75 201 156 138 184 206 218 216 236 253 257 278 277 264 245 256 273 275 293 305 302 328 305 295 244 226 235 223 177 162 144 143 133 128 132 150 153 162 165 173 178
190 141 166 259 267 335 293 162 138 200 214 230 260 256 260 272 278 255 274 284 277 274 262 230 238 253 265 211 183 209 223 186 164 172 146 147 161 168 174 176 179 183 195 188
175 167 164 224 217 135 274 296 345 337 309 295 273 274 258 235 265 277 278 264 278 288 290 285 270 265 276 220 157 112 174 164 161 143 174 151 143 158 162 170 164 200 197 203